Home > Weather > Dortmund > Past weeks

Flag for Germany Past Weather in Dortmund, North Rhine-Westphalia, Germany — Yesterday and Last 2 Weeks

Now
64 °F

Sunny.


Feels Like: 64 °F
Forecast: 58 / 71 °F
Wind: 5 mph from East

Location: Dortmund / Wickede

Current Time: May 29, 2016 at 12:16:12 AM

Latest Report: May 28, 2016 at 9:50 PM


Visibility: 10 mi

Pressure: 29.86 "Hg

Humidity: 64%

Dew Point: 52 °F

Location of DortmundLocation

Past Weather in Dortmund — Graph

°F

Dortmund Temperature Yesterday

Maximum temperature yesterday: 73 °F (at 3:20 PM)
Minimum temperature yesterday: 54 °F (at 5:20 AM)
Average temperature yesterday: 66 °F

High & Low Weather Summary for the Past Weeks

 TemperatureHumidityPressure
High73 °F (May 21, 5:50 PM)94% (May 23, 6:50 PM)30.12 "Hg (May 23, 6:50 PM)
Low39 °F (May 15, 5:20 AM)37% (May 18, 1:50 PM)29.68 "Hg (May 13, 9:20 PM)
Average56 °F65%29.95 "Hg
* Reported May 13 9:20 PM — May 28 9:50 PM, Dortmund, Weather by CustomWeather, © 2016

Note: Actual official high and low records may vary slightly from our data, if they occured in-between our weather recording intervals... More about our weather records

Advertising

Dortmund Weather History for the Previous 24 Hours

Scroll right to see more
 ConditionsComfort  
Time TempWeatherWind HumidityBarometerVisibility
9:50 PM
Sat, May 28
64 °FSunny.5 mph64%29.86 "Hg10 mi
9:20 PM66 °FSunny.3 mph64%29.86 "Hg10 mi
8:50 PM68 °FSunny.5 mph56%29.86 "Hg10 mi
7:50 PM70 °FSunny.10 mph57%29.86 "Hg10 mi
6:50 PM72 °FSunny.9 mph50%29.86 "Hg10 mi
6:20 PM72 °FSunny.7 mph50%29.86 "Hg10 mi
5:50 PM72 °FSunny.7 mph50%29.86 "Hg10 mi
5:20 PM73 °FPassing clouds.6 mph50%29.86 "HgN/A
4:50 PM73 °FSunny.5 mph47%29.86 "Hg10 mi
4:20 PM72 °FScattered clouds.5 mph47%29.89 "HgN/A
3:50 PM73 °FScattered clouds.6 mph47%29.89 "HgN/A
3:20 PM73 °FScattered clouds.5 mph50%29.89 "HgN/A
2:50 PM72 °FScattered clouds.3 mph50%29.89 "HgN/A
2:20 PM70 °FScattered clouds.3 mph53%29.92 "HgN/A
1:50 PM72 °FScattered clouds.5 mph50%29.92 "HgN/A
1:20 PM70 °FScattered clouds.5 mph53%29.92 "HgN/A
12:50 PM70 °FSunny.5 mph60%29.92 "Hg10 mi
12:20 PM70 °FPassing clouds.5 mph57%29.92 "HgN/A
11:50 AM68 °FSunny.3 mph60%29.92 "Hg10 mi
11:20 AM68 °FSunny.3 mph64%29.95 "Hg10 mi
10:50 AM66 °FSunny.2 mph68%29.95 "Hg10 mi
10:20 AM64 °FSunny.2 mph68%29.95 "Hg10 mi
9:50 AM63 °FSunny.3 mph73%29.95 "Hg10 mi
9:20 AM61 °FSunny.3 mph77%29.95 "Hg10 mi
8:50 AM59 °FSunny.1 mph82%29.95 "Hg10 mi
8:20 AM59 °FSunny.3 mph82%29.95 "Hg10 mi
7:50 AM57 °FSunny.2 mph88%29.95 "Hg10 mi
7:20 AM55 °FSunny.2 mph88%29.95 "Hg10 mi
6:50 AM54 °FSunny.2 mph88%29.95 "Hg10 mi
6:20 AM55 °FSunny.3 mph88%29.95 "Hg10 mi
5:50 AM54 °FClear.No wind88%29.95 "Hg10 mi
5:20 AM54 °FClear.3 mph88%29.98 "Hg10 mi
Weather by CustomWeather, © 2016

See weather overviewHow to use our weather pages